| time (UTC) | temp C | wind direction | speed KPH | gust KPH | rain 1hr cm | rain 24hr cm | rain mn cm | humidity % | barometer mb |
| 20260504044537 | 9 | 281 | 20.9 | 32.2 | 0.00 | 0.00 | 0.00 | 55 | 1011.9 |
| 20260504043033 | 9 | 250 | 16.1 | 27.4 | 0.00 | 0.00 | 0.00 | 55 | 1012.0 |
| 20260504041525 | 8 | 246 | 17.7 | 25.7 | 0.00 | 0.00 | 0.00 | 55 | 1012.1 |
| 20260504040025 | 9 | 360 | 11.3 | 20.9 | 0.00 | 0.00 | 0.00 | 54 | 1012.2 |
| 20260504034533 | 10 | 360 | 14.5 | 19.3 | 0.00 | 0.00 | 0.00 | 52 | 1012.2 |
| 20260504033103 | 10 | 360 | 11.3 | 17.7 | 0.00 | 0.00 | 0.00 | 51 | 1012.2 |
| 20260504031554 | 10 | 360 | 12.9 | 17.7 | 0.00 | 0.00 | 0.00 | 49 | 1012.4 |
| 20260504030051 | 10 | 360 | 9.7 | 17.7 | 0.00 | 0.00 | 0.00 | 49 | 1012.6 |
| 20260504024551 | 10 | 360 | 9.7 | 16.1 | 0.00 | 0.00 | 0.00 | 48 | 1012.8 |
| 20260504023050 | 10 | 360 | 11.3 | 17.7 | 0.00 | 0.00 | 0.00 | 47 | 1012.7 |
| 20260504021550 | 11 | 360 | 9.7 | 17.7 | 0.00 | 0.00 | 0.00 | 46 | 1012.6 |
| 20260504020048 | 11 | 270 | 4.8 | 17.7 | 0.00 | 0.00 | 0.00 | 46 | 1012.8 |
| 20260504014549 | 11 | 360 | 8.0 | 17.7 | 0.00 | 0.00 | 0.00 | 45 | 1012.9 |
| 20260504013050 | 11 | 360 | 4.8 | 9.7 | 0.00 | 0.00 | 0.00 | 45 | 1012.8 |
| 20260504011548 | 11 | 360 | 11.3 | 22.5 | 0.00 | 0.00 | 0.00 | 44 | 1012.7 |
| 20260504010015 | 11 | 360 | 8.0 | 24.1 | 0.00 | 0.00 | 0.00 | 44 | 1012.6 |
| 20260504004515 | 11 | 313 | 16.1 | 38.6 | 0.00 | 0.00 | 0.00 | 43 | 1012.6 |
| 20260504003011 | 11 | 284 | 27.4 | 48.3 | 0.00 | 0.00 | 0.00 | 45 | 1012.4 |
| 20260504001511 | 11 | 308 | 12.9 | 22.5 | 0.00 | 0.00 | 0.00 | 45 | 1012.3 |
| 20260504000010 | 11 | 267 | 6.4 | 12.9 | 0.00 | 0.00 | 0.00 | 47 | 1012.2 |
| 20260503234510 | 11 | 301 | 6.4 | 27.4 | 0.00 | 0.00 | 0.00 | 47 | 1012.1 |
| 20260503233007 | 11 | 344 | 11.3 | 32.2 | 0.00 | 0.00 | 0.00 | 47 | 1012.3 |
| 20260503231506 | 11 | 327 | 22.5 | 33.8 | 0.00 | 0.00 | 0.00 | 46 | 1012.3 |
| 20260503230006 | 11 | 312 | 17.7 | 46.7 | 0.00 | 0.00 | 0.00 | 45 | 1012.3 |
| 20260503224505 | 12 | 276 | 22.5 | 35.4 | 0.00 | 0.00 | 0.00 | 44 | 1011.9 |
| 20260503223100 | 12 | 287 | 11.3 | 25.7 | 0.00 | 0.00 | 0.00 | 45 | 1011.8 |
| 20260503221557 | 11 | 277 | 14.5 | 32.2 | 0.00 | 0.00 | 0.00 | 46 | 1011.9 |
| 20260503220110 | 11 | 269 | 17.7 | 35.4 | 0.00 | 0.00 | 0.00 | 46 | 1012.2 |
| 20260503214557 | 11 | 314 | 27.4 | 49.9 | 0.00 | 0.00 | 0.00 | 45 | 1012.2 |
| 20260503213054 | 11 | 271 | 20.9 | 37.0 | 0.00 | 0.00 | 0.00 | 45 | 1012.0 |
| 20260503211606 | 11 | 294 | 22.5 | 30.6 | 0.00 | 0.00 | 0.00 | 45 | 1012.0 |
| 20260503210055 | 11 | 332 | 19.3 | 35.4 | 0.00 | 0.00 | 0.00 | 45 | 1012.0 |
| 20260503204553 | 11 | 316 | 17.7 | 30.6 | 0.00 | 0.00 | 0.00 | 46 | 1012.2 |
| 20260503203017 | 11 | 305 | 20.9 | 37.0 | 0.00 | 0.00 | 0.00 | 46 | 1012.4 |
| 20260503201525 | 11 | 315 | 12.9 | 33.8 | 0.00 | 0.00 | 0.00 | 47 | 1012.6 |
| 20260503200011 | 10 | 283 | 19.3 | 27.4 | 0.00 | 0.00 | 0.00 | 47 | 1012.8 |
| 20260503194507 | 10 | 334 | 12.9 | 43.5 | 0.00 | 0.00 | 0.00 | 48 | 1013.1 |
| 20260503193004 | 10 | 315 | 20.9 | 33.8 | 0.00 | 0.00 | 0.00 | 48 | 1013.3 |
| 20260503191503 | 10 | 333 | 20.9 | 35.4 | 0.00 | 0.00 | 0.00 | 48 | 1013.4 |
| 20260503190101 | 10 | 313 | 20.9 | 33.8 | 0.00 | 0.00 | 0.00 | 48 | 1013.6 |
| 20260503184559 | 10 | 320 | 19.3 | 37.0 | 0.00 | 0.00 | 0.00 | 47 | 1013.6 |
| 20260503183104 | 10 | 338 | 16.1 | 32.2 | 0.00 | 0.00 | 0.00 | 47 | 1013.5 |
| 20260503181621 | 10 | 314 | 22.5 | 32.2 | 0.00 | 0.00 | 0.00 | 47 | 1013.6 |
| 20260503180100 | 10 | 326 | 20.9 | 43.5 | 0.00 | 0.00 | 0.00 | 47 | 1013.7 |
| 20260503174555 | 9 | 338 | 24.1 | 37.0 | 0.00 | 0.00 | 0.00 | 45 | 1013.8 |
| 20260503173054 | 8 | 328 | 16.1 | 29.0 | 0.00 | 0.00 | 0.00 | 44 | 1013.9 |
| 20260503171543 | 9 | 284 | 14.5 | 32.2 | 0.00 | 0.00 | 0.00 | 45 | 1014.0 |
| 20260503150118 | 6 | 355 | 20.9 | 30.6 | 0.00 | 0.00 | 0.00 | 54 | 1015.5 |
| 20260503081516 | 1 | 311 | 3.2 | 12.9 | 0.00 | 0.00 | 0.00 | 81 | 1015.0 |
| 20260503071506 | 1 | 281 | 9.7 | 16.1 | 0.00 | 0.00 | 0.00 | 81 | 1015.0 |
| 20260503054525 | 1 | 317 | 14.5 | 20.9 | 0.00 | 0.00 | 0.00 | 79 | 1015.3 |
| 20260503053033 | 1 | 290 | 11.3 | 20.9 | 0.00 | 0.00 | 0.00 | 78 | 1015.4 |